[[{"header":{"parameterUnit":"m.s-1","parameterCategory":1,"la1":30.2991,"la2":30.254,"lo1":-89.0895,"lo2":-89.0444,"dy":0.0017,"dx":0.0017,"nx":28,"ny":28,"refTime":"2025-12-17T09:00:00:Z","depth":0,"parameterNumber":2,"parameterNumberName":"U-component_of_WINDS"},"data":[0,0,0,0,0,0,0,0,0,0,0,0,0,0,0,0,0,0,0,0,0,0,0,0,0,0,0,0,0,0,0,0,0,0,0,0,0,0,0,0,0,0,0,0,0,0,0,0,0,0,0,0,0,0,0,0,0,0,-2.3869,-2.387,0,-2.3994,-2.3995,-2.3997,-2.4006,-2.4004,-2.4003,-2.4002,-2.4128,-2.4132,-2.4137,0,0,0,0,0,0,0,0,0,0,0,0,0,-2.3636,-2.364,-2.3868,-2.387,-2.3872,-2.3994,-2.3995,-2.3997,-2.4006,-2.4004,-2.4003,-2.4001,-2.4126,-2.4131,-2.4137,0,0,0,0,0,0,0,0,0,0,0,0,0,-2.3746,-2.3641,-2.3868,-2.3891,-2.3894,-2.3993,-2.3995,-2.3998,-2.4006,-2.4004,-2.4002,-2.4,-2.4124,-2.4131,-2.4138,-2.4222,0,0,-2.4159,-2.4162,0,0,0,0,0,0,0,0,-2.374,-2.3755,-2.3886,-2.389,-2.3893,-2.3982,-2.3959,-2.4073,-2.4007,-2.3964,-2.4002,-2.3999,-2.4081,-2.4091,-2.4119,-2.4228,-2.4233,-2.416,-2.4164,-2.4167,-2.4169,0,0,0,0,0,0,0,-2.3732,-2.3749,-2.3918,-2.3888,-2.3892,-2.3894,-2.3908,-2.3981,-2.4032,-2.3967,-2.3968,-2.3983,-2.4082,-2.4112,-2.4122,-2.4235,-2.4159,-2.4166,-2.417,-2.4173,-2.4421,-2.4423,0,0,0,0,0,0,-2.3721,-2.3743,-2.3914,-2.3922,-2.381,-2.39,-2.3915,-2.3956,-2.4031,-2.4041,-2.3985,-2.3983,-2.4101,-2.4114,-2.4126,-2.423,-2.4167,-2.4173,-2.4177,-2.4418,-2.4421,-2.4424,0,0,0,0,0,0,-2.3716,-2.3736,-2.3909,-2.3833,-2.3855,-2.3906,-2.3952,-2.3959,-2.3989,-2.4045,-2.4054,-2.4006,-2.41,-2.4117,-2.4199,-2.4235,-2.4176,-2.4183,-2.4415,-2.4419,-2.4422,-2.4439,0,0,0,0,0,0,-2.3709,-2.3734,-2.3767,-2.3834,-2.3859,-2.3979,-2.3954,-2.3963,-2.4002,-2.4001,-2.4067,-2.4076,-2.41,-2.4188,-2.4206,-2.4243,-2.4188,-2.4412,-2.4417,-2.4421,-2.4435,-2.4442,-2.4449,0,0,0,0,0,-2.37,-2.3765,-2.3768,-2.3789,-2.3901,-2.3981,-2.3996,-2.4023,-2.4004,-2.4038,-2.4073,-2.4074,-2.4228,-2.4197,-2.4216,-2.4257,-2.441,-2.4416,-2.4421,-2.4432,-2.4441,-2.4448,0,0,0,0,0,0,-2.37,-2.3775,-2.3778,-2.3867,-2.3918,-2.3983,-2.4025,-2.4031,-2.4088,-2.4084,-2.4115,-2.413,-2.4211,-2.4242,-2.4205,-2.4343,-2.4317,-2.4327,-2.4319,-2.4328,-2.4334,-2.4325,-2.4194,0,0,0,0,0,-2.3711,-2.377,-2.3832,-2.3904,-2.393,-2.3973,-2.4009,-2.4026,-2.4079,-2.4101,-2.4142,-2.4194,-2.4254,-2.4293,-2.4351,-2.444,-2.4455,-2.4478,-2.4485,-2.449,-2.4497,-2.4547,-2.4558,-2.4442,-2.4441,-2.4441,0,0,-2.3732,-2.3781,-2.3816,-2.3906,-2.3947,-2.4007,-2.3991,-2.4056,-2.4101,-2.411,-2.419,-2.4223,-2.4282,-2.4368,-2.4408,-2.4397,-2.4533,-2.4497,-2.4501,-2.4505,-2.4554,-2.4565,-2.4574,-2.4445,-2.4445,-2.4444,0,0,-2.3803,-2.3846,-2.3911,-2.3953,-2.4017,-2.4045,-2.4061,-2.4126,-2.4148,-2.4229,-2.4238,-2.4292,-2.4395,-2.4437,-2.4472,-2.456,-2.4563,-2.4579,-2.4613,-2.4661,-2.4671,-2.4679,-2.471,-2.4721,-2.4586,-2.4586,-2.4586,0,-2.3822,-2.3914,-2.3943,-2.4008,-2.4047,-2.406,-2.4126,-2.4166,-2.4244,-2.4271,-2.4258,-2.4388,-2.4429,-2.4525,-2.4547,-2.4575,-2.4593,-2.457,-2.4667,-2.4676,-2.4684,-2.4714,-2.4726,-2.4588,-2.4588,-2.4587,-2.4587,0,-2.3934,-2.3998,-2.4043,-2.412,-2.4164,-2.4229,-2.4268,-2.4309,-2.4323,-2.4353,-2.4436,-2.4486,-2.4555,-2.4579,-2.4592,-2.4677,-2.4668,-2.4661,-2.4636,-2.4696,-2.4725,-2.4737,-2.459,-2.4589,-2.4589,-2.4589,0,0,-2.4005,-2.41,-2.4115,-2.4151,-2.4223,-2.4272,-2.4339,-2.4407,-2.4442,-2.4497,-2.4552,-2.464,-2.4634,-2.4674,-2.4692,-2.4734,-2.4801,-2.4722,-2.4724,-2.4734,-2.4898,-2.4903,-2.4916,-2.4804,-2.4807,-2.4808,-2.4893,0,-2.4083,-2.4202,-2.4231,-2.4332,-2.4391,-2.4405,-2.4463,-2.4513,-2.4543,-2.4598,-2.4632,-2.4693,-2.4681,-2.4705,-2.4748,-2.4784,-2.4834,-2.4779,-2.4856,-2.4858,-2.4839,-2.4931,-2.4936,-2.5013,-2.4905,-2.4907,-2.4908,0,-2.419,-2.4248,-2.4355,-2.442,-2.4446,-2.4497,-2.4563,-2.4615,-2.4673,-2.4692,-2.4737,-2.4752,-2.4821,-2.4794,-2.4889,-2.485,-2.4884,-2.4907,-2.4911,-2.4918,-2.4886,-2.494,-2.5038,-2.505,-2.4926,-2.4925,-2.4923,0,-2.423,-2.4336,-2.4413,-2.4443,-2.4521,-2.4557,-2.4591,-2.4647,-2.4687,-2.4744,-2.477,-2.4835,-2.487,-2.4919,-2.4951,-2.4928,-2.5044,-2.5019,-2.5061,-2.5061,-2.5084,-2.5081,-2.5188,-2.5107,-2.5107,-2.5107,-2.5106,0,-2.4314,-2.4378,-2.4433,-2.4481,-2.4554,-2.4587,-2.4658,-2.4693,-2.4742,-2.4797,-2.4813,-2.4864,-2.4903,-2.4959,-2.4984,-2.5059,-2.5075,-2.5092,-2.5098,-2.509,-2.5088,-2.5112,-2.5107,-2.511,-2.5109,-2.5109,-2.5108,0,-2.4371,-2.441,-2.4496,-2.4563,-2.4582,-2.4633,-2.4691,-2.4737,-2.4769,-2.4838,-2.4856,-2.4906,-2.4973,-2.501,-2.5093,-2.511,-2.5194,-2.5198,-2.5175,-2.5177,-2.5217,-2.5212,-2.5342,-2.536,-2.5267,-2.5268,-2.5269,0,-2.4421,-2.4471,-2.4545,-2.4583,-2.4618,-2.4679,-2.472,-2.4755,-2.4797,-2.4868,-2.4906,-2.4974,-2.503,-2.5137,-2.518,-2.5244,-2.5249,-2.529,-2.5258,-2.5249,-2.5249,-2.5245,-2.525,-2.5295,-2.5295,-2.5296,-2.5297,0,-2.4505,-2.4522,-2.4581,-2.4648,-2.4697,-2.475,-2.4804,-2.4834,-2.4878,-2.4924,-2.4994,-2.5037,-2.5124,-2.5191,-2.526,-2.5294,-2.5303,-2.5307,-2.532,-2.5312,-2.5296,-2.5305,-2.5189,-2.5303,-2.5302,-2.5302,-2.5302,-2.5301,-2.4559,-2.4605,-2.4664,-2.473,-2.4774,-2.4824,-2.4871,-2.491,-2.4969,-2.5042,-2.506,-2.5133,-2.519,-2.5283,-2.5319,-2.5377,-2.5369,-2.5388,-2.5393,-2.5396,-2.5398,-2.5288,-2.5389,-2.5389,-2.5389,-2.5389,-2.5389,0,-2.4644,-2.4683,-2.4743,-2.4818,-2.4869,-2.4875,-2.4934,-2.4977,-2.5041,-2.5095,-2.515,-2.523,-2.5296,-2.5346,-2.5413,-2.545,-2.5455,-2.5466,-2.5463,-2.5471,-2.5401,-2.5383,-2.546,-2.546,-2.546,-2.546,-2.546,-2.546,-2.4693,-2.4771,-2.4796,-2.4896,-2.4935,-2.5007,-2.5041,-2.5087,-2.5129,-2.5218,-2.5274,-2.5306,-2.5358,-2.5429,-2.549,-2.5503,-2.5527,-2.5537,-2.555,-2.5483,-2.5476,-2.5468,-2.5451,-2.5542,-2.5542,-2.5615,-2.5616,-2.5616]},{"header":{"parameterUnit":"m.s-1","parameterCategory":1,"la1":30.2991,"la2":30.254,"lo1":-89.0895,"lo2":-89.0444,"dy":0.0017,"dx":0.0017,"nx":28,"ny":28,"refTime":"2025-12-17T09:00:00:Z","depth":0,"parameterNumber":3,"parameterNumberName":"V-component_of_WINDS"},"data":[0,0,0,0,0,0,0,0,0,0,0,0,0,0,0,0,0,0,0,0,0,0,0,0,0,0,0,0,0,0,0,0,0,0,0,0,0,0,0,0,0,0,0,0,0,0,0,0,0,0,0,0,0,0,0,0,0,0,1.7963,1.7963,0,1.7957,1.7957,1.7957,1.7996,1.7997,1.7998,1.7999,1.7986,1.7985,1.7984,0,0,0,0,0,0,0,0,0,0,0,0,0,1.8003,1.8002,1.7963,1.7963,1.7963,1.7957,1.7957,1.7957,1.7996,1.7997,1.7999,1.8,1.7987,1.7985,1.7984,0,0,0,0,0,0,0,0,0,0,0,0,0,1.799,1.8001,1.7963,1.7981,1.7983,1.7957,1.7957,1.7957,1.7996,1.7997,1.7999,1.8,1.7987,1.7985,1.7983,1.7937,0,0,1.7977,1.7976,0,0,0,0,0,0,0,0,1.799,1.7988,1.7979,1.798,1.7982,1.7979,1.7967,1.795,1.7995,1.799,1.7999,1.8001,1.7982,1.7981,1.7976,1.7937,1.7936,1.7977,1.7976,1.7975,1.7974,0,0,0,0,0,0,0,1.7991,1.7989,1.796,1.7978,1.798,1.7989,1.7989,1.7964,1.7977,1.7991,1.7994,1.7993,1.7983,1.7978,1.7976,1.7936,1.7977,1.7975,1.7974,1.7973,1.7863,1.7861,0,0,0,0,0,0,1.799,1.7989,1.7961,1.796,1.7991,1.7987,1.7987,1.7978,1.7977,1.7979,1.7992,1.7995,1.798,1.7978,1.7975,1.7924,1.7975,1.7973,1.7972,1.7865,1.7863,1.7861,0,0,0,0,0,0,1.7991,1.7988,1.7961,1.7976,1.7973,1.7984,1.7974,1.7977,1.7972,1.7978,1.798,1.7984,1.7982,1.7978,1.7948,1.7924,1.7972,1.797,1.7867,1.7864,1.7862,1.782,0,0,0,0,0,0,1.7992,1.7988,1.7971,1.7975,1.7972,1.7934,1.7973,1.7976,1.7969,1.7973,1.7971,1.7972,1.7983,1.7951,1.7946,1.7922,1.7968,1.7869,1.7866,1.7863,1.7823,1.7816,1.781,0,0,0,0,0,1.7993,1.7957,1.797,1.7966,1.7951,1.7933,1.7931,1.7946,1.7967,1.795,1.7955,1.7972,1.7928,1.7947,1.7942,1.7918,1.787,1.7866,1.7863,1.7826,1.7818,1.781,0,0,0,0,0,0,1.7945,1.7957,1.7972,1.7936,1.7934,1.7939,1.7918,1.7935,1.7925,1.7929,1.7946,1.7945,1.7913,1.7912,1.7933,1.7875,1.7903,1.7898,1.7877,1.7868,1.7862,1.7863,1.7967,0,0,0,0,0,1.7931,1.7917,1.7927,1.7894,1.7893,1.7906,1.7898,1.7911,1.7908,1.7906,1.7908,1.7903,1.7889,1.7878,1.7865,1.7824,1.7825,1.7804,1.7798,1.7792,1.7788,1.7769,1.7761,1.7848,1.7848,1.7849,0,0,1.79,1.7905,1.7894,1.7885,1.7885,1.7869,1.7904,1.7885,1.7873,1.7902,1.7875,1.7877,1.7873,1.7838,1.7822,1.7836,1.7764,1.7787,1.7783,1.7781,1.7764,1.7756,1.7749,1.7846,1.7846,1.7847,0,0,1.7837,1.7838,1.7813,1.7814,1.7814,1.7824,1.7818,1.7822,1.7826,1.78,1.7822,1.7808,1.7781,1.7779,1.7774,1.7715,1.7731,1.771,1.7674,1.7656,1.7649,1.7643,1.7624,1.7617,1.7705,1.7705,1.7705,0,1.7798,1.7777,1.7797,1.7778,1.7774,1.7804,1.7778,1.7776,1.7771,1.7768,1.7784,1.7755,1.7753,1.772,1.7707,1.7701,1.7695,1.771,1.7649,1.7643,1.7638,1.762,1.7612,1.7702,1.7703,1.7703,1.7703,0,1.773,1.7715,1.7694,1.7694,1.7687,1.7664,1.7681,1.7672,1.7686,1.7694,1.7668,1.7668,1.7658,1.765,1.7661,1.7619,1.7629,1.7647,1.7675,1.7627,1.761,1.7603,1.7699,1.77,1.77,1.7701,0,0,1.7633,1.7648,1.764,1.7642,1.7647,1.7635,1.7614,1.7607,1.76,1.7596,1.758,1.756,1.7578,1.7573,1.7584,1.7568,1.7525,1.7589,1.7589,1.7578,1.7481,1.7468,1.746,1.7536,1.7535,1.7534,1.7482,0,1.7573,1.7542,1.7562,1.7527,1.7514,1.7544,1.7527,1.7528,1.7535,1.7525,1.7533,1.7519,1.7543,1.7541,1.7526,1.7533,1.7505,1.7537,1.7521,1.752,1.7522,1.7451,1.7436,1.7387,1.7475,1.7474,1.7473,0,1.7498,1.7497,1.7461,1.7473,1.7469,1.7453,1.745,1.744,1.7442,1.7449,1.7445,1.7462,1.7443,1.7472,1.7446,1.7467,1.7462,1.7465,1.7463,1.7463,1.7494,1.7449,1.7371,1.7365,1.7463,1.7464,1.7465,0,1.7435,1.7422,1.7401,1.7401,1.7413,1.7402,1.7406,1.741,1.7406,1.7403,1.7401,1.7393,1.739,1.7384,1.7399,1.7418,1.7372,1.7401,1.7378,1.7377,1.7366,1.7367,1.7288,1.7361,1.7361,1.7362,1.7362,0,1.7366,1.7344,1.7373,1.736,1.7337,1.736,1.7335,1.7342,1.7347,1.7335,1.7359,1.7348,1.7368,1.7358,1.7369,1.7348,1.7345,1.7351,1.7354,1.7349,1.7349,1.7346,1.735,1.736,1.736,1.736,1.7361,0,1.729,1.7309,1.7288,1.7303,1.7307,1.7289,1.7301,1.7289,1.7301,1.7286,1.7284,1.73,1.729,1.7305,1.7296,1.7304,1.7275,1.7283,1.7275,1.7278,1.7254,1.7257,1.7171,1.7162,1.724,1.724,1.7239,0,1.7246,1.723,1.7245,1.7241,1.7245,1.7237,1.7234,1.7256,1.7252,1.7256,1.7244,1.7238,1.7234,1.7217,1.7227,1.7221,1.723,1.72,1.7228,1.7225,1.7231,1.7233,1.7232,1.7194,1.7193,1.7192,1.7192,0,1.7165,1.7177,1.7173,1.7174,1.7171,1.7171,1.7173,1.7168,1.7192,1.7186,1.7179,1.7176,1.7169,1.7163,1.716,1.7163,1.7182,1.7183,1.7178,1.7173,1.717,1.7173,1.7261,1.7185,1.7185,1.7186,1.7186,1.7187,1.7105,1.7094,1.7105,1.71,1.7105,1.7108,1.7099,1.7111,1.7106,1.7105,1.7118,1.7108,1.7114,1.7113,1.7115,1.7107,1.712,1.7111,1.7109,1.7107,1.7104,1.7171,1.7106,1.7106,1.7106,1.7107,1.7107,0,1.7028,1.7037,1.7033,1.7038,1.7035,1.7057,1.7061,1.7057,1.7049,1.7054,1.7051,1.7044,1.7039,1.705,1.7047,1.7039,1.7047,1.7037,1.7038,1.7039,1.7092,1.7098,1.703,1.703,1.703,1.703,1.7031,1.7031,1.6987,1.6971,1.6984,1.6972,1.698,1.6974,1.6975,1.6978,1.6982,1.6974,1.6972,1.698,1.6988,1.6987,1.6983,1.6987,1.6985,1.6972,1.6978,1.7027,1.7035,1.7042,1.7048,1.6971,1.6971,1.6927,1.6926,1.6926]}]]